Location: Breux
(46.3269°N, 3.2993°E)
Time: 03:04:06
(UTC+00:00)

Cosmos 2344 - Pass Details

Date: 09 April 2020
Orbit: 1251 x 2991 km, 63.3° (Epoch: 02 June)

Event Time Altitude Azimuth Distance (km) Brightness Sun altitude
Rises 22:23:43 0° 320° (NW) 4,638 7.5 -32.5°
Reaches altitude 10° 22:26:20 10° 320° (NW) 3,799 6.8 -32.7°
Maximum altitude 22:36:01 86° 233° (SW) 1,978 4.3 -33.3°
Enters shadow 22:38:45 61° 152° (SSE) 2,297 4.4 -33.5°
